Flag for Argentina Weather past 2 weeks in Ushuaia, Tierra del Fuego, Argentina

Now
45 °F

Clear.


Feels Like: 35 °F
Forecast: 44 / 57 °F
Wind: 28 mph from Northwest

Location: Rio Grande B. A.

Current Time: Oct 25, 2014 at 5:19:11 AM

Latest Report: Oct 25, 2014 at 4:00 AM


Visibility: 10 mi

Pressure: 29.47 "Hg

Humidity: 81%

Dew point: 39 °F

Location of UshuaiaLocation

Historic Weather in Ushuaia — Graph

°F

Ushuaia temperature yesterday

Maximum temperature yesterday: 68 °F (at 1:00 PM)
Minimum temperature yesterday: 45 °F (at 12:00 AM)
Average temperature yesterday: 55 °F

Past Weeks' High & Low Weather Summary

 TemperatureHumidityPressure
High68 °F (Oct 24, 1:00 PM)100% (Oct 18, 1:00 AM)29.95 "Hg (Oct 18, 1:00 AM)
Low28 °F (Oct 13, 5:00 AM)40% (Oct 24, 2:00 PM)28.82 "Hg (Oct 12, 3:00 PM)
Average45 °F74%29.47 "Hg
* Reported Oct 10 4:00 AM — Oct 25 4:00 AM, Ushuaia, Weather by CustomWeather, © 2014

Note: Actual official high and low records may vary slightly from our data, if they occured in-between our weather recording intervals... More about our weather records

Advertising

Ushuaia weather history for previous 24 hours

 ConditionsComfort  
Time TempWeatherWind HumidityBarometerVisibility
4:00 AM
Oct 25
45 °FClear.28 mph81%29.47 "Hg10 mi
2:00 AM46 °FClear.26 mph71%29.47 "Hg10 mi
1:00 AM48 °FClear.33 mph66%29.50 "Hg10 mi
12:00 AM48 °FClear.14 mph87%29.50 "Hg10 mi
11:00 PM
Oct 24
48 °FPassing clouds.14 mph94%29.50 "HgN/A
10:00 PM50 °FPassing clouds.24 mph82%29.50 "HgN/A
9:00 PM54 °FPassing clouds.28 mph77%29.50 "HgN/A
8:00 PM55 °FPassing clouds.28 mph77%29.50 "HgN/A
7:00 PM59 °FSunny.40 mph51%29.42 "Hg10 mi
6:00 PM61 °FSunny.37 mph59%29.45 "Hg10 mi
5:00 PM64 °FSunny.40 mph52%N/A10 mi
4:00 PM68 °FPassing clouds.38 mph43%29.42 "HgN/A
3:00 PM68 °FPassing clouds.38 mph40%29.42 "HgN/A
2:00 PM68 °FMild.38 mph40%29.39 "HgN/A
1:00 PM68 °FPassing clouds.37 mph49%29.42 "HgN/A
12:00 PM66 °FPassing clouds.39 mph46%29.39 "HgN/A
11:00 AM61 °FScattered clouds.36 mph52%29.42 "HgN/A
10:00 AM57 °FSunny.35 mph59%29.42 "Hg10 mi
9:00 AM54 °FSunny.28 mph58%29.45 "Hg10 mi
8:00 AM50 °FSunny.28 mph62%29.45 "Hg10 mi
7:00 AM46 °FPassing clouds.24 mph71%29.45 "HgN/A
6:00 AM46 °FPassing clouds.24 mph71%29.45 "HgN/A
Weather by CustomWeather, © 2014

See weather overviewHow to use our weather pages